Location: Sungai Jaoh
(2.9167°N, 113.9167°E)
Time: 15:04:06
(UTC+00:00)

Ariane H10+ - Pass Details

Date: 30 November 2020
Orbit: 359 x 34423 km, 6.9° (Epoch: 25 January)

Event Time Altitude Azimuth Distance (km) Brightness Sun altitude
Exits shadow 20:58:52 20° 210° (SSW) 941 2.4 -18.3°
Maximum altitude 20:59:59 28° 165° (SSE) 821 2.6 -18.1°
Drops below altitude 10° 21:03:36 10° 102° (ESE) 2,289 5.7 -17.3°
Sets 21:08:19 0° 92° (E) 4,681 7.4 -16.2°
